METEOSAT-10 (MSG-3)

Last updated on Tue Oct 14 2025 00:02:22 GMT+0000 (Coordinated Universal Time)

1 38552U 12035B 25286.20216532 -.00000010 00000+0 00000+0 0 9998 2 38552 4.0833 61.8375 0000992 207.4137 186.2073 1.00279213 48382
UTC large
Height (km)
Speed (km/s)
/
Latitude / Longitude
Inclination (degrees)
Orbital Period (minutes)
Azimuth
Elevation
Range (km)
Doppler Factor

Next 0 passes for location: London (51.5072 / 0.1276)

Sorry there are no passes over London.